Weather History for Detroit Metro, MI

Change the Weather History Date:

Thursday, November 1, 2012

  Actual Average Record
Temperature  
Mean Temperature 44 °F 47 °F  
Max Temperature 50 °F 56 °F 81 °F (1950)
Min Temperature 38 °F 39 °F 21 °F (1879)
Degree Days  
Heating Degree Days 21 18  
Month to date heating degree days 21 18  
Since 1 July heating degree days 514 529  
Cooling Degree Days 0 0  
Month to date cooling degree days 0 0  
Year to date cooling degree days 1156 803  
Moisture  
Dew Point 32 °F    
Average Humidity 64    
Maximum Humidity 79    
Minimum Humidity 49    
Precipitation  
Precipitation 0.00 in 0.09 in 1.59 in (1982)
Month to date precipitation 0.00 0.09  
Year to date precipitation 23.75 28.31  
Snow  
Snow 0.00 in 0.00 in T in (2002)
Month to date snowfall 0.0 0.0  
Since 1 July snowfall T 0.1  
Since 1 September snowfall T 0.1  
Snow Depth 0.00 in    
Sea Level Pressure  
Sea Level Pressure 29.72 in    
Wind  
Wind Speed 12 mph (West)    
Max Wind Speed 20 mph    
Max Gust Speed 25 mph    
Visibility 10 miles    
Events      
T = Trace of Precipitation, MM = Missing Value Source: NWS Daily Summary

Daily Weather History Graph

Daily Weather History Graph

Search for Another Location

Airport:

Trip Planner

Search our weather history database for the weather conditions in past years. The results will help you decide how hot, cold, wet, or windy it might be!

Date:

Astronomy

Nov. 01, 2012 Rise Set
Actual Time 8:06 AM EDT 6:26 PM EDT
Civil Twilight 7:37 AM EDT 6:55 PM EDT
Nautical Twilight 7:04 AM EDT 7:28 PM EDT
Astronomical Twilight 6:32 AM EDT 8:01 PM EDT
Moon 8:20 PM EDT (11/1) 10:41 AM EDT (11/1)
Length of Visible Light 11h 17m
Length of Day
10h 19m
Waning Gibbous, 93% of the Moon is Illuminated
Nov 1
Waning Gibbous
Nov 6
Last Quarter
Nov 13
New
Nov 20
First Quarter
Nov 28
Full

Hourly Weather History & Observations

Time (EDT) Temp. Windchill Dew Point Humidity Pressure Visibility Wind Dir Wind Speed Gust Speed Precip Events Conditions
12:53 AM 42.1 °F 34.9 °F 36.0 °F 79% 29.67 in 10.0 mi WNW 13.8 mph - N/A   Overcast
1:53 AM 42.1 °F 35.7 °F 36.0 °F 79% 29.68 in 10.0 mi WNW 11.5 mph - N/A   Overcast
2:53 AM 41.0 °F 34.3 °F 36.0 °F 82% 29.68 in 10.0 mi WNW 11.5 mph - N/A   Overcast
3:53 AM 41.0 °F 35.2 °F 36.0 °F 82% 29.68 in 10.0 mi West 9.2 mph - N/A   Overcast
4:53 AM 41.0 °F 34.7 °F 36.0 °F 82% 29.68 in 10.0 mi West 10.4 mph - N/A   Overcast
5:53 AM 42.1 °F 35.2 °F 35.1 °F 76% 29.69 in 10.0 mi West 12.7 mph - N/A   Overcast
6:16 AM 42.8 °F 35.8 °F 33.8 °F 70% 29.68 in 10.0 mi West 13.8 mph - N/A   Overcast
6:53 AM 42.1 °F 34.9 °F 34.0 °F 73% 29.70 in 10.0 mi West 13.8 mph - N/A   Overcast
7:53 AM 41.0 °F 33.1 °F 33.1 °F 73% 29.71 in 10.0 mi West 15.0 mph - N/A   Overcast
8:53 AM 41.0 °F 32.5 °F 33.1 °F 73% 29.72 in 10.0 mi West 17.3 mph 23.0 mph N/A   Overcast
9:53 AM 41.0 °F 32.5 °F 32.0 °F 70% 29.72 in 10.0 mi West 17.3 mph 23.0 mph N/A   Overcast
10:53 AM 42.1 °F 34.2 °F 32.0 °F 67% 29.75 in 10.0 mi West 16.1 mph 20.7 mph N/A   Overcast
11:53 AM 43.0 °F 35.7 °F 32.0 °F 65% 29.75 in 10.0 mi WNW 15.0 mph 23.0 mph N/A   Overcast
12:53 PM 43.0 °F 35.4 °F 30.0 °F 60% 29.74 in 10.0 mi WNW 16.1 mph 23.0 mph N/A   Overcast
1:12 PM 42.8 °F 34.5 °F 30.2 °F 61% 29.73 in 10.0 mi West 18.4 mph - N/A   Mostly Cloudy
1:53 PM 46.0 °F 40.6 °F 30.0 °F 54% 29.73 in 10.0 mi West 11.5 mph - N/A   Mostly Cloudy
2:53 PM 48.2 °F - 30.2 °F 50% 29.70 in 10.0 mi West 11.5 mph 21.9 mph N/A   Scattered Clouds
3:53 PM 48.9 °F - 30.0 °F 48% 29.70 in 10.0 mi West 13.8 mph 21.9 mph N/A   Mostly Cloudy
4:53 PM 46.9 °F - 28.9 °F 50% 29.70 in 10.0 mi WNW 12.7 mph - N/A   Mostly Cloudy
5:53 PM 46.9 °F - 28.0 °F 48% 29.72 in 10.0 mi WNW 10.4 mph - N/A   Mostly Cloudy
6:53 PM 46.0 °F 42.5 °F 28.0 °F 50% 29.74 in 10.0 mi WNW 6.9 mph - N/A   Mostly Cloudy
7:53 PM 46.0 °F 41.4 °F 30.0 °F 54% 29.76 in 10.0 mi West 9.2 mph - N/A   Overcast
8:53 PM 45.0 °F 41.8 °F 30.9 °F 58% 29.77 in 10.0 mi West 5.8 mph - N/A   Overcast
9:53 PM 44.1 °F 36.5 °F 28.0 °F 53% 29.78 in 10.0 mi West 17.3 mph - N/A   Overcast
10:53 PM 41.0 °F 34.3 °F 28.0 °F 60% 29.79 in 10.0 mi West 11.5 mph - N/A   Mostly Cloudy
11:53 PM 39.9 °F 33.9 °F 28.9 °F 65% 29.80 in 10.0 mi West 9.2 mph - N/A   Overcast